Location: Plzen
(49.7500°N, 13.3670°E)
Time: 04:28:20
(UTC+02:00)

ISS - Pass Details

Date: 19 May 2021
Orbit: 417 x 422 km, 51.6° (Epoch: 13 June)

Event Time Altitude Azimuth Distance (km) Brightness Sun altitude
Rises 23:42:19 0° 279° (W) 2,367 0.5 -18.0°
Reaches altitude 10° 23:44:26 10° 282° (WNW) 1,503 -0.5 -18.1°
Maximum altitude 23:47:47 62° 4° (N) 479 -3.3 -18.3°
Enters shadow 23:50:11 18° 83° (E) 1,130 -1.7 -18.4°
